[TLELIST] Archives

 

Current TLEs

March 15th 2008 PST

HST 1 20580U 90037B 08073.75534345 .00000418 00000-0 19564-4 0 924 2 20580 028.4679 225.6413 0003876 092.4138 267.6893 15.00348907780639 ISS (ZARYA) 1 25544U 98067A 08074.48202803 .00018107 00000-0 11584-3 0 1100 2 25544 051.6391 144.5867 0001100 237.8458 254.9002 15.76404231533580 CXO 1 25867U 99040B 08072.33333333 .00000224 00000-0 10000-3 0 1771 2 25867 063.3008 082.9471 6662777 280.1753 352.0919 00.37803691 3265 ____________________________________________________________________ These 2-Line ...Continue Reading

Current TLEs

March 14th 2008 PST

HST 1 20580U 90037B 08071.82625173 +.00000381 +00000-0 +16650-4 0 00966 2 20580 028.4682 238.2205 0003864 072.0656 288.0354 15.00347678780349 ISS (ZARYA) 1 25544U 98067A 08073.33259575 .00028716 00000-0 18138-3 0 1043 2 25544 051.6370 150.5072 0001279 243.0751 202.2610 15.76371282533405 CXO 1 25867U 99040B 08072.33333333 .00000224 00000-0 10000-3 0 1771 2 25867 063.3008 082.9471 6662777 280.1753 352.0919 00.37803691 3265 ____________________________________________________________________ These 2-Line ...Continue Reading

Current TLEs

March 13th 2008 PST

HST 1 20580U 90037B 08070.82844427 +.00000404 +00000-0 +18469-4 0 01046 2 20580 028.4681 244.7275 0003813 061.5784 298.5192 15.00347384780199 ISS (ZARYA) 1 25544U 98067A 08072.52769676 .00027591 00000-0 17483-3 0 985 2 25544 051.6370 154.6574 0001377 238.9578 315.6034 15.76321575533270 CXO 1 25867U 99040B 08072.33333333 .00000224 00000-0 10000-3 0 1771 2 25867 063.3008 082.9471 6662777 280.1753 352.0919 00.37803691 3265 ____________________________________________________________________ These 2-Line ...Continue Reading

Current TLEs

March 12th 2008 PST

HST 1 20580U 90037B 08071.16104670 .00000404 00000-0 18482-4 0 902 2 20580 028.4681 242.5586 0003840 064.8371 295.2613 15.00347536780245 ISS (ZARYA) 1 25544U 98067A 08071.36697444 .00026865 00000-0 17085-3 0 902 2 25544 051.6387 160.6387 0002052 220.5225 222.9055 15.76254185533099 CXO 1 25867U 99040B 08069.70833333 .00000328 00000-0 10000-3 0 1767 2 25867 063.2784 083.0452 6661577 280.1812 354.7697 00.37809370 3250 ____________________________________________________________________ These 2-Line ...Continue Reading

Current TLEs

March 11th 2008 PST

HST 1 20580U 90037B 08069.83063686 .00000366 00000-0 15506-4 0 893 2 20580 028.4685 251.2415 0003505 051.3069 308.7835 15.00346692780046 ISS (ZARYA) 1 25544U 98067A 08070.40878108 .00023772 00000-0 15224-3 0 844 2 25544 051.6389 165.5710 0001770 228.0693 174.4591 15.76173545532942 CXO 1 25867U 99040B 08069.70833333 .00000328 00000-0 10000-3 0 1767 2 25867 063.2784 083.0452 6661577 280.1812 354.7697 00.37809370 3250 ____________________________________________________________________ These 2-Line ...Continue Reading

Current TLEs

March 10th 2008 PST

HST 1 20580U 90037B 08067.90154031 +.00000378 +00000-0 +16486-4 0 01021 2 20580 028.4687 263.8238 0003390 029.7806 330.2976 15.00346012779758 ISS (ZARYA) 1 25544U 98067A 08069.53348130 .00021365 00000-0 13760-3 0 785 2 25544 051.6381 170.0806 0001732 218.7041 253.8545 15.76119987532808 CXO 1 25867U 99040B 08069.70833333 .00000328 00000-0 10000-3 0 1767 2 25867 063.2784 083.0452 6661577 280.1812 354.7697 00.37809370 3250 ____________________________________________________________________ These 2-Line ...Continue Reading

Current TLEs

March 9th 2008 PST

HST 1 20580U 90037B 08066.90373099 .00000405 00000-0 18523-4 0 874 2 20580 028.4687 270.3312 0003352 018.6375 341.4336 15.00345764779601 ISS (ZARYA) 1 25544U 98067A 08068.39213491 .00020307 00000-0 13131-3 0 708 2 25544 051.6380 175.9590 0001805 212.3047 259.9378 15.76066021532629 CXO 1 25867U 99040B 08067.08333333 .00000335 00000-0 10000-3 0 1758 2 25867 063.2578 083.1285 6657936 280.1712 357.4969 00.37808950 3243 ____________________________________________________________________ These 2-Line ...Continue Reading

Current TLEs

March 8th 2008 PST

HST 1 20580U 90037B 08066.90373099 .00000405 00000-0 18523-4 0 874 2 20580 028.4687 270.3312 0003352 018.6375 341.4336 15.00345764779601 ISS (ZARYA) 1 25544U 98067A 08067.37660855 .00019759 00000-0 12813-3 0 632 2 25544 051.6382 181.1891 0001970 206.4772 260.0150 15.76021542532468 CXO 1 25867U 99040B 08067.08333333 .00000335 00000-0 10000-3 0 1758 2 25867 063.2578 083.1285 6657936 280.1712 357.4969 00.37808950 3243 ____________________________________________________________________ These 2-Line ...Continue Reading

Current TLEs

March 7th 2008 PST

HST 1 20580U 90037B 08064.90811228 +.00000428 +00000-0 +20351-4 0 01028 2 20580 028.4687 283.3448 0003387 357.4879 002.5695 15.00344891779306 ISS (ZARYA) 1 25544U 98067A 08066.41457713 .00019631 00000-0 12755-3 0 558 2 25544 051.6382 186.1436 0001981 205.1175 199.4931 15.75981358532318 CXO 1 25867U 99040B 08067.08333333 .00000335 00000-0 10000-3 0 1758 2 25867 063.2578 083.1285 6657936 280.1712 357.4969 00.37808950 3243 ____________________________________________________________________ These 2-Line ...Continue Reading

Current TLEs

March 6th 2008 PST

HST 1 20580U 90037B 08064.97463286 .00000431 00000-0 20558-4 0 866 2 20580 028.4688 282.9109 0003378 358.4129 001.6450 15.00344955779316 ISS (ZARYA) 1 25544U 98067A 08065.41280892 .00021267 00000-0 13802-3 0 494 2 25544 051.6378 191.3046 0001795 197.5538 279.7355 15.75946995532150 CXO 1 25867U 99040B 08064.41666667 .00000259 00000-0 10000-3 0 1745 2 25867 063.2420 083.1952 6652960 280.1746 354.5094 00.37806768 3230 ____________________________________________________________________ These 2-Line ...Continue Reading
  • This mailing list is a public mailing list - anyone may join or leave, at any time.
  • This mailing list is announce-only.

International Space Station (ISS) / Hubble Space Telescope (HST) / Chandra X-Ray Observatory Orbital Data via EMAIL

Privacy Policy:

Private list